Home   Weather   Salem   Past weeks

Flag for USA Past Weather in Salem, Oregon, USA — Yesterday and Last 2 Weeks

Now
56 °F

Sunny.


Feels Like: 55 °F
Forecast: 39 / 64 °F
Wind: 5 mph from Northeast

Location: McNary Field

Current Time: Apr 28, 2017 at 8:56:42 pm

Latest Report: Apr 28, 2017 at 7:56 pm


Visibility: 10 mi

Pressure: 30.31 "Hg

Humidity: 49%

Dew Point: 37 °F

Location of SalemLocation

Past Weather in Salem — Graph

°F

Salem Temperature Yesterday

Maximum temperature yesterday: 54 °F (at 4:56 pm)
Minimum temperature yesterday: 42 °F (at 2:56 am)
Average temperature yesterday: 48 °F

High & Low Weather Summary for the Past Weeks

 TemperatureHumidityPressure
High69 °F (Apr 21, 5:56 pm)97% (Apr 21, 7:39 am)30.42 "Hg (Apr 21, 7:39 am)
Low35 °F (Apr 15, 5:56 am)37% (Apr 15, 7:56 pm)29.65 "Hg (Apr 24, 7:36 am)
Average51 °F75%30.03 "Hg
* Reported Apr 13 6:56 pm — Apr 28 6:56 pm, Salem, Weather by CustomWeather, © 2017

Note: Actual official high and low records may vary slightly from our data, if they occured in-between our weather recording intervals... More about our weather records

Advertising

Salem Weather History for the Previous 24 Hours

Scroll right to see more
 ConditionsComfort  
Time TempWeatherWind HumidityBarometerVisibility
6:56 pm
Fri, Apr 28
58 °FPassing clouds.7 mph46%30.30 "Hg10 mi
5:56 pm59 °FSunny.3 mph44%30.31 "Hg10 mi
4:56 pm57 °FOvercast.8 mph49%30.32 "Hg10 mi
3:56 pm58 °FScattered clouds.8 mph47%30.34 "Hg10 mi
2:56 pm57 °FPartly sunny.6 mph51%30.36 "Hg10 mi
1:56 pm56 °FMostly cloudy.5 mph47%30.36 "Hg10 mi
12:56 pm54 °FMostly cloudy.3 mph49%30.38 "Hg10 mi
11:56 am54 °FPartly sunny.5 mph51%30.38 "Hg10 mi
10:56 am52 °FMore clouds than sun.5 mph59%30.37 "Hg10 mi
9:56 am51 °FPartly sunny.No wind63%30.37 "Hg10 mi
8:56 am46 °FMore clouds than sun.No wind79%30.37 "Hg10 mi
7:56 am42 °FMore clouds than sun.No wind89%30.36 "Hg10 mi
6:56 am40 °FOvercast.No wind89%30.33 "Hg10 mi
5:56 am36 °FPassing clouds.5 mph92%30.32 "Hg10 mi
4:56 am39 °FClear.No wind89%30.30 "Hg10 mi
3:56 am40 °FMostly cloudy.No wind89%30.30 "Hg10 mi
2:56 am40 °FPassing clouds.3 mph86%30.29 "Hg10 mi
1:56 am41 °FClear.No wind82%30.27 "Hg10 mi
12:56 am43 °FPassing clouds.6 mph79%30.27 "Hg10 mi
11:56 pm
Thu, Apr 27
45 °FPassing clouds.7 mph76%30.25 "Hg10 mi
10:56 pm46 °FOvercast.7 mph73%30.24 "Hg10 mi
9:56 pm47 °FPassing clouds.7 mph71%30.22 "Hg10 mi
8:56 pm48 °FOvercast.9 mph71%30.20 "Hg10 mi
Weather by CustomWeather, © 2017

See weather overviewHow to use our weather pages